Regional Weather Roundup
Issued by NWS Green Bay, WI

Home | Current Version | Previous Version | Graphics & Text | Print | Product List | Glossary Off
Versions: 1 2 3 4 5 6 7 8 9 10 11 12 13 14 15 16 17 18 19 20 21 22 23 24 25 26 27 28 29 30 31 32 33 34 35 36 37 38 39 40 41 42 43 44 45 46 47 48 49 50

000
ASUS43 KGRB 192159
RWRGRB

NORTH-CENTRAL AND NORTHEAST WISCONSIN REGIONAL WEATHER ROUNDUP
NATIONAL WEATHER SERVICE GREEN BAY WI
500 PM CDT SAT APR 19 2014

WIZ005-009-010>012-018-019-192300-
NORTH CENTRAL WISCONSIN

CITY           SKY/WX    TMP DP  RH WIND       PRES   REMARKS
IRONWOOD       CLOUDY    46  36  66 S6        30.02R
MANITOWISH WTR NOT AVBL
ARBOR VITAE    NOT AVBL
EAGLE RIVER    NOT AVBL
LAND O LAKES   NOT AVBL
RHINELANDER    MOSUNNY   52  30  43 S8G23     30.10F
PHILLIPS       NOT AVBL
ANTIGO         NOT AVBL
TOMAHAWK       NOT AVBL
MERRILL        NOT AVBL
$$

WIZ013-073-192300-
NORTHEAST WISCONSIN

CITY           SKY/WX    TMP DP  RH WIND       PRES   REMARKS
IRON MOUNTAIN  SUNNY     50  25  37 SE15G28   30.16F
MARINETTE      MOSUNNY   48  30  49 S14G20    30.25F
$$

WIZ017-030-035>037-045-192300-
CENTRAL WISCONSIN

CITY           SKY/WX    TMP DP  RH WIND       PRES   REMARKS
MEDFORD        NOT AVBL
WAUSAU         SUNNY     61  34  36 SE16G26   30.11F
MOSINEE        SUNNY     61  36  39 S16G24    30.14F
MARSHFIELD     MOSUNNY   63  37  38 SE18      30.11F
WISC RAPIDS    SUNNY     65  35  33 S13       30.14F
STEVENS POINT  NOT AVBL
WAUPACA        NOT AVBL
SHAWANO        NOT AVBL
CLINTONVILLE   NOT AVBL
$$

WIZ038-039-048-051-192300-
FOX VALLEY

CITY           SKY/WX    TMP DP  RH WIND       PRES   REMARKS
NWS GREEN BAY  MOSUNNY   53  37  54 S15       30.23F
APPLETON       PTSUNNY   55  32  41 SE15G23   30.22F
OSHKOSH        PTSUNNY   58  34  40 SE14G22   30.20F
FOND DU LAC    PTSUNNY   59  37  44 SE17      30.21F
$$

WIZ022-050-052-192300-
EAST CENTRAL WISCONSIN

CITY           SKY/WX    TMP DP  RH WIND       PRES   REMARKS
STURGEON BAY   PTSUNNY   46  30  53 S14G20    30.27F
MANITOWOC      NOT AVBL
SHEBOYGAN      MOSUNNY   50  36  58 S12       30.26F
$$

LMZ563-521-522-541>543-192300-
LAKESHORE

STATION/POSITION TIME  TEMP    WIND        PRES    VSBY  WAVE
                       AIR SEA DIR/SP/G                  HT/PER
                 (UTC) (F)     (DEG/KT/KT) (MB)    (MI)  (FT/S)
SHEBOYGAN LKSHOR 2100   40     180/ 14/ 15 1026.5F
KEWAUNEE LKSHORE 2100   39     170/  8/ 10 1026.1F
TWO RIVERS CG    2100   38                   N/A       6   1
NORTHPORT PIER   2100   36     140/  4/  6 1025.7F
SISTER BAY LKSHO 2100   47     160/  9/ 12   N/A
STURGEON BAY CG  2100   39     100/  8     1026.6      6   1
MENOMINEE LKSHOR 2100   38     130/ 12/ 14 1025.3F
$$



USA.gov is the U.S. government's official web portal to all federal, state and local government web resources and services.